Carlsbad, NM

10:22 PM MDT on April 25, 2018 (GMT -0600)
Cavern City

Weather History for KCNM - November, 2011

Change the Weather History Date:

Thursday, November 10, 2011

  Actual Average Record
Temperature  
Mean Temperature 45 °F -  
Max Temperature 62 °F 66 °F 84 °F (2007)
Min Temperature 28 °F 37 °F 21 °F (1950)
Degree Days  
Heating Degree Days 20    
Moisture  
Dew Point 19 °F    
Average Humidity 43    
Maximum Humidity 69    
Minimum Humidity 18    
Precipitation  
Precipitation 0.00 in - - ()
Sea Level Pressure  
Sea Level Pressure 30.37 in    
Wind  
Wind Speed 4 mph (South)    
Max Wind Speed 12 mph    
Max Gust Speed 18 mph    
Visibility 10 miles    
Events      
Averages and records for this station are not official NWS values.
T = Trace of Precipitation, MM = Missing Value Source: NWS Daily Summary

Daily Weather History Graph

Daily Weather History Graph

Search for Another Location

Airport or City:

Astronomy

Nov. 10, 2011 Rise Set
Actual Time 6:21 AM MST 4:59 PM MST
Civil Twilight 5:55 AM MST 5:25 PM MST
Nautical Twilight 5:26 AM MST 5:54 PM MST
Astronomical Twilight 4:57 AM MST 6:23 PM MST
Moon 4:52 PM MST (11/10) 6:13 AM MST (11/10)
Length of Visible Light 11h 29m
Length of Day
10h 38m
Full, 100% of the Moon is Illuminated
Nov 10
Full
Nov 10
Full
Nov 18
Last Quarter
Nov 24
New
Dec 2
First Quarter

Hourly Weather History & Observations

Time (MST) Temp. Windchill Dew Point Humidity Pressure Visibility Wind Dir Wind Speed Gust Speed Precip Events Conditions
12:53 AM 33.1 °F - 21.0 °F 61% 30.46 in 10.0 mi Calm Calm - N/A   Clear
1:53 AM 30.2 °F - 21.2 °F 69% 30.48 in 10.0 mi Calm Calm - N/A   Clear
2:53 AM 30.0 °F 25.2 °F 21.0 °F 69% 30.46 in 10.0 mi WNW 4.6 mph - N/A   Clear
3:53 AM 28.0 °F - 19.0 °F 69% 30.46 in 10.0 mi Calm Calm - N/A   Clear
4:53 AM 28.0 °F - 19.0 °F 69% 30.48 in 10.0 mi Calm Calm - N/A   Clear
5:53 AM 28.9 °F - 19.9 °F 69% 30.51 in 10.0 mi Calm Calm - N/A   Clear
6:53 AM 28.0 °F 21.7 °F 19.0 °F 69% 30.53 in 10.0 mi WSW 5.8 mph - N/A   Clear
7:53 AM 36.0 °F - 23.0 °F 59% 30.52 in 10.0 mi North - - N/A   Clear
8:53 AM 46.0 °F 44.8 °F 23.0 °F 40% 30.50 in 10.0 mi NE 3.5 mph - N/A   Clear
9:53 AM 48.9 °F - 24.1 °F 38% 30.49 in 10.0 mi SSE 5.8 mph - N/A   Clear
10:53 AM 55.4 °F - 23.0 °F 29% 30.48 in 10.0 mi SSE 8.1 mph 17.3 mph N/A   Clear
11:53 AM 57.9 °F - 19.0 °F 22% 30.40 in 10.0 mi South 8.1 mph 17.3 mph N/A   Clear
12:53 PM 59.0 °F - 19.0 °F 21% 30.34 in 10.0 mi South 10.4 mph 18.4 mph N/A   Clear
1:53 PM 61.0 °F - 18.0 °F 19% 30.30 in 10.0 mi South 11.5 mph 18.4 mph N/A   Clear
2:53 PM 62.1 °F - 17.1 °F 18% 30.27 in 10.0 mi South 10.4 mph - N/A   Clear
3:53 PM 61.0 °F - 17.1 °F 18% 30.26 in 10.0 mi SSE 10.4 mph - N/A   Clear
4:53 PM 55.9 °F - 16.0 °F 21% 30.25 in 10.0 mi SE 8.1 mph - N/A   Clear
5:53 PM 50.0 °F - 16.0 °F 26% 30.26 in 10.0 mi South 10.4 mph - N/A   Clear
6:53 PM 45.0 °F - 16.0 °F 31% 30.27 in 10.0 mi Calm Calm - N/A   Clear
7:53 PM 44.1 °F 42.5 °F 17.1 °F 34% 30.26 in 10.0 mi WSW 3.5 mph - N/A   Clear
8:53 PM 39.9 °F 34.5 °F 16.0 °F 38% 30.23 in 10.0 mi South 8.1 mph - N/A   Clear
9:53 PM 34.0 °F 29.8 °F 15.1 °F 46% 30.23 in 10.0 mi WSW 4.6 mph - N/A   Clear
10:53 PM 35.1 °F - 16.0 °F 46% 30.21 in 10.0 mi Calm Calm - N/A   Clear
11:53 PM 37.0 °F 31.0 °F 16.0 °F 42% 30.15 in 10.0 mi SSW 8.1 mph - N/A   Clear